Location: Unspecified
(0.0000°N, 0.0000°E)
Time: 19:04:33
(UTC+00:00)

Tiros 1 - Pass Details

Date: 27 November 2019
Orbit: 630 x 664 km, 48.4° (Epoch: 08 December)

Event Time Altitude Azimuth Distance (km) Brightness Sun altitude
Rises 08:22:51 0° 229° (SW) 2,962 10.4 35.8°
Reaches altitude 10° 08:25:16 10° 235° (SW) 2,043 9.6 36.4°
Maximum altitude 08:29:47 47° 308° (NW) 848 7.8 37.4°
Drops below altitude 10° 08:34:16 10° 23° (NNE) 2,015 9.8 38.4°
Sets 08:36:38 0° 29° (NNE) 2,916 10.5 38.9°
